Time,TemperatureF,DewpointF,PressureIn,WindDirection,WindDirectionDegrees,WindSpeedMPH,WindSpeedGustMPH,Humidity,HourlyPrecipIn,Conditions,Clouds,dailyrainin,SolarRadiationWatts/m^2,SoftwareType,DateUTC
2013-04-12 00:00:00,53.2,44.0,29.83,ESE,113,0.0,0.0,71,0.00,,,0.01,0,Wunderground v.1.15,2013-04-12 05:00:00,
2013-04-12 00:06:00,53.1,43.9,29.83,ESE,113,0.0,0.0,71,0.00,,,0.00,0,Wunderground v.1.15,2013-04-12 05:06:00,
2013-04-12 00:10:00,53.0,44.2,29.83,ESE,113,0.0,0.0,72,0.00,,,0.00,0,Wunderground v.1.15,2013-04-12 05:10:00,
2013-04-12 00:15:00,52.9,44.1,29.83,ESE,113,0.0,0.0,72,0.00,,,0.00,0,Wunderground v.1.15,2013-04-12 05:15:00,
2013-04-12 00:20:00,52.8,44.4,29.83,ESE,113,0.0,0.0,73,0.00,,,0.00,0,Wunderground v.1.15,2013-04-12 05:20:00,
2013-04-12 00:25:00,52.7,44.3,29.83,ESE,113,0.0,0.0,73,0.00,,,0.00,0,Wunderground v.1.15,2013-04-12 05:25:00,
2013-04-12 00:30:00,52.5,44.1,29.83,ESE,113,0.0,0.0,73,0.00,,,0.00,0,Wunderground v.1.15,2013-04-12 05:30:00,
2013-04-12 00:35:00,52.4,44.4,29.83,ESE,113,0.0,0.0,74,0.00,,,0.00,0,Wunderground v.1.15,2013-04-12 05:35:00,
2013-04-12 00:45:00,52.2,44.2,29.83,ESE,113,0.0,0.0,74,0.00,,,0.00,0,Wunderground v.1.15,2013-04-12 05:45:00,
2013-04-12 00:50:00,52.1,44.1,29.83,ESE,113,0.0,0.0,74,0.00,,,0.00,0,Wunderground v.1.15,2013-04-12 05:50:00,
2013-04-12 00:55:00,52.0,44.3,29.83,ESE,113,0.0,0.0,75,0.00,,,0.00,0,Wunderground v.1.15,2013-04-12 05:55:00,
2013-04-12 01:00:00,51.9,44.6,29.84,ESE,113,0.0,0.0,76,0.00,,,0.00,0,Wunderground v.1.15,2013-04-12 06:00:00,
2013-04-12 01:06:00,51.7,44.4,29.84,ESE,113,0.0,0.0,76,0.00,,,0.00,0,Wunderground v.1.15,2013-04-12 06:06:00,
2013-04-12 01:10:00,51.7,44.4,29.84,ESE,113,0.0,0.0,76,0.00,,,0.00,0,Wunderground v.1.15,2013-04-12 06:10:00,
2013-04-12 01:15:00,51.6,44.3,29.84,ESE,113,0.0,0.0,76,0.00,,,0.00,0,Wunderground v.1.15,2013-04-12 06:15:00,
2013-04-12 01:20:00,51.5,44.2,29.84,ESE,113,0.0,0.0,76,0.00,,,0.00,0,Wunderground v.1.15,2013-04-12 06:20:00,
2013-04-12 01:25:00,51.4,44.1,29.84,ESE,113,0.0,0.0,76,0.00,,,0.00,0,Wunderground v.1.15,2013-04-12 06:25:00,
2013-04-12 01:30:00,51.3,44.0,29.85,ESE,113,0.0,0.0,76,0.00,,,0.00,0,Wunderground v.1.15,2013-04-12 06:30:00,
2013-04-12 01:36:00,51.2,43.9,29.85,ESE,113,0.0,0.0,76,0.00,,,0.00,0,Wunderground v.1.15,2013-04-12 06:36:00,
2013-04-12 01:40:00,51.0,43.7,29.85,ESE,113,0.0,0.0,76,0.00,,,0.00,0,Wunderground v.1.15,2013-04-12 06:40:00,
2013-04-12 01:50:00,50.7,43.4,29.85,ESE,113,0.0,0.0,76,0.00,,,0.00,0,Wunderground v.1.15,2013-04-12 06:50:00,
2013-04-12 02:00:00,50.5,43.6,29.84,ESE,113,0.0,0.0,77,0.00,,,0.00,0,Wunderground v.1.15,2013-04-12 07:00:00,
2013-04-12 02:10:00,50.2,43.6,29.84,ESE,113,0.0,0.0,78,0.00,,,0.00,0,Wunderground v.1.15,2013-04-12 07:10:00,
2013-04-12 02:15:00,50.0,43.7,29.83,ESE,113,0.0,0.0,79,0.00,,,0.00,0,Wunderground v.1.15,2013-04-12 07:15:00,
2013-04-12 02:20:00,49.8,43.5,29.83,ESE,113,0.0,0.0,79,0.00,,,0.00,0,Wunderground v.1.15,2013-04-12 07:20:00,
2013-04-12 02:25:00,49.7,43.8,29.83,ESE,113,0.0,0.0,80,0.00,,,0.00,0,Wunderground v.1.15,2013-04-12 07:25:00,
2013-04-12 02:30:00,49.6,43.7,29.84,ESE,113,0.0,0.0,80,0.00,,,0.00,0,Wunderground v.1.15,2013-04-12 07:30:00,
2013-04-12 02:36:00,49.6,43.7,29.84,ESE,113,0.0,0.0,80,0.00,,,0.00,0,Wunderground v.1.15,2013-04-12 07:36:00,
2013-04-12 02:40:00,49.5,43.6,29.84,ESE,113,0.0,0.0,80,0.00,,,0.00,0,Wunderground v.1.15,2013-04-12 07:40:00,
2013-04-12 02:45:00,49.4,43.5,29.84,ESE,113,0.0,0.0,80,0.00,,,0.00,0,Wunderground v.1.15,2013-04-12 07:45:00,
2013-04-12 02:50:00,49.3,43.4,29.84,ESE,113,0.0,0.0,80,0.00,,,0.00,0,Wunderground v.1.15,2013-04-12 07:50:00,
2013-04-12 02:55:00,49.2,43.3,29.84,ESE,113,0.0,0.0,80,0.00,,,0.00,0,Wunderground v.1.15,2013-04-12 07:55:00,
2013-04-12 03:00:00,49.2,43.3,29.84,ESE,113,0.0,0.0,80,0.00,,,0.00,0,Wunderground v.1.15,2013-04-12 08:00:00,
2013-04-12 03:05:00,49.2,43.3,29.84,ESE,113,0.0,0.0,80,0.00,,,0.00,0,Wunderground v.1.15,2013-04-12 08:05:00,
2013-04-12 03:15:00,49.2,43.6,29.83,ESE,113,0.0,0.0,81,0.00,,,0.00,0,Wunderground v.1.15,2013-04-12 08:15:00,
2013-04-12 03:25:00,49.2,43.6,29.83,ESE,113,0.0,0.0,81,0.00,,,0.00,0,Wunderground v.1.15,2013-04-12 08:25:00,
2013-04-12 03:40:00,49.1,43.5,29.83,ESE,113,0.0,0.0,81,0.00,,,0.00,0,Wunderground v.1.15,2013-04-12 08:40:00,
2013-04-12 03:45:00,49.1,43.5,29.83,ESE,113,0.0,0.0,81,0.00,,,0.00,0,Wunderground v.1.15,2013-04-12 08:45:00,
2013-04-12 03:50:00,48.9,43.3,29.83,ESE,113,0.0,0.0,81,0.00,,,0.00,0,Wunderground v.1.15,2013-04-12 08:50:00,
2013-04-12 03:55:00,48.8,43.2,29.83,ESE,113,0.0,0.0,81,0.00,,,0.00,0,Wunderground v.1.15,2013-04-12 08:55:00,
2013-04-12 04:00:00,48.6,43.0,29.83,ESE,113,0.0,0.0,81,0.00,,,0.00,0,Wunderground v.1.15,2013-04-12 09:00:00,
2013-04-12 04:06:00,48.5,43.3,29.83,ESE,113,0.0,0.0,82,0.00,,,0.00,0,Wunderground v.1.15,2013-04-12 09:06:00,
2013-04-12 04:15:00,48.2,43.0,29.83,ESE,113,0.0,0.0,82,0.00,,,0.00,0,Wunderground v.1.15,2013-04-12 09:15:00,
2013-04-12 04:20:00,48.1,43.2,29.83,ESE,113,0.0,0.0,83,0.00,,,0.00,0,Wunderground v.1.15,2013-04-12 09:20:00,
2013-04-12 04:25:00,48.0,43.1,29.83,ESE,113,0.0,0.0,83,0.00,,,0.00,0,Wunderground v.1.15,2013-04-12 09:25:00,
2013-04-12 04:30:00,47.9,43.0,29.83,ESE,113,0.0,0.0,83,0.00,,,0.00,0,Wunderground v.1.15,2013-04-12 09:30:00,
2013-04-12 04:35:00,47.8,42.9,29.83,ESE,113,0.0,0.0,83,0.00,,,0.00,0,Wunderground v.1.15,2013-04-12 09:35:00,
2013-04-12 04:45:00,47.6,42.7,29.83,ESE,113,0.0,0.0,83,0.00,,,0.00,0,Wunderground v.1.15,2013-04-12 09:45:00,
2013-04-12 04:50:00,47.4,42.8,29.83,ESE,113,0.0,0.0,84,0.00,,,0.00,0,Wunderground v.1.15,2013-04-12 09:50:00,
2013-04-12 04:55:00,47.4,42.8,29.83,ESE,113,0.0,0.0,84,0.00,,,0.00,0,Wunderground v.1.15,2013-04-12 09:55:00,
2013-04-12 05:00:00,47.2,42.6,29.83,ESE,113,0.0,0.0,84,0.00,,,0.00,0,Wunderground v.1.15,2013-04-12 10:00:00,
2013-04-12 05:06:00,47.1,42.5,29.83,ESE,113,0.0,0.0,84,0.00,,,0.00,0,Wunderground v.1.15,2013-04-12 10:06:00,
2013-04-12 05:10:00,47.0,42.4,29.83,ESE,113,0.0,0.0,84,0.00,,,0.00,0,Wunderground v.1.15,2013-04-12 10:10:00,
2013-04-12 05:15:00,46.9,42.3,29.83,ESE,113,0.0,0.0,84,0.00,,,0.00,0,Wunderground v.1.15,2013-04-12 10:15:00,
2013-04-12 05:21:00,46.9,42.6,29.83,ESE,113,0.0,0.0,85,0.00,,,0.00,0,Wunderground v.1.15,2013-04-12 10:21:00,
2013-04-12 05:25:00,46.8,42.5,29.83,ESE,113,0.0,0.0,85,0.00,,,0.00,0,Wunderground v.1.15,2013-04-12 10:25:00,
2013-04-12 05:35:00,46.6,42.3,29.83,ESE,113,0.0,0.0,85,0.00,,,0.00,0,Wunderground v.1.15,2013-04-12 10:35:00,
2013-04-12 05:40:00,46.5,42.2,29.83,ESE,113,0.0,0.0,85,0.00,,,0.00,0,Wunderground v.1.15,2013-04-12 10:40:00,
2013-04-12 05:45:00,46.5,42.5,29.84,ESE,113,0.0,0.0,86,0.00,,,0.00,0,Wunderground v.1.15,2013-04-12 10:45:00,
2013-04-12 05:50:00,46.4,42.4,29.84,ESE,113,0.0,0.0,86,0.00,,,0.00,0,Wunderground v.1.15,2013-04-12 10:50:00,
2013-04-12 05:55:00,46.4,42.4,29.84,ESE,113,0.0,0.0,86,0.00,,,0.00,0,Wunderground v.1.15,2013-04-12 10:55:00,
2013-04-12 06:00:00,46.3,42.3,29.85,ESE,113,0.0,0.0,86,0.00,,,0.00,0,Wunderground v.1.15,2013-04-12 11:00:00,
2013-04-12 06:06:00,46.2,42.2,29.85,ESE,113,0.0,0.0,86,0.00,,,0.00,0,Wunderground v.1.15,2013-04-12 11:06:00,
2013-04-12 06:15:00,46.1,42.1,29.85,ESE,113,0.0,0.0,86,0.00,,,0.00,0,Wunderground v.1.15,2013-04-12 11:15:00,
2013-04-12 06:20:00,46.0,42.0,29.85,ESE,113,0.0,0.0,86,0.00,,,0.00,0,Wunderground v.1.15,2013-04-12 11:20:00,
2013-04-12 06:25:00,45.9,41.9,29.85,ESE,113,0.0,0.0,86,0.00,,,0.00,0,Wunderground v.1.15,2013-04-12 11:25:00,
2013-04-12 06:30:00,45.8,41.9,29.86,ESE,113,0.0,0.0,86,0.00,,,0.00,0,Wunderground v.1.15,2013-04-12 11:30:00,
2013-04-12 06:35:00,45.6,41.7,29.86,ESE,113,0.0,0.0,86,0.00,,,0.00,0,Wunderground v.1.15,2013-04-12 11:35:00,
2013-04-12 06:40:00,45.5,41.6,29.86,ESE,113,0.0,0.0,86,0.00,,,0.00,0,Wunderground v.1.15,2013-04-12 11:40:00,
2013-04-12 06:50:00,45.4,41.5,29.87,ESE,113,0.0,0.0,86,0.00,,,0.00,0,Wunderground v.1.15,2013-04-12 11:50:00,
2013-04-12 06:55:00,45.3,41.7,29.87,ESE,113,0.0,0.0,87,0.00,,,0.00,0,Wunderground v.1.15,2013-04-12 11:55:00,
2013-04-12 07:00:00,45.2,41.6,29.88,ESE,113,0.0,0.0,87,0.00,,,0.00,0,Wunderground v.1.15,2013-04-12 12:00:00,
2013-04-12 07:06:00,45.1,41.5,29.88,ESE,113,0.0,0.0,87,0.00,,,0.00,0,Wunderground v.1.15,2013-04-12 12:06:00,
2013-04-12 07:10:00,45.0,41.4,29.88,ESE,113,0.0,0.0,87,0.00,,,0.00,0,Wunderground v.1.15,2013-04-12 12:10:00,
2013-04-12 07:15:00,45.0,41.4,29.88,ESE,113,0.0,0.0,87,0.00,,,0.00,7,Wunderground v.1.15,2013-04-12 12:15:00,
2013-04-12 07:20:00,45.0,41.7,29.88,ESE,113,0.0,0.0,88,0.00,,,0.00,11,Wunderground v.1.15,2013-04-12 12:20:00,
2013-04-12 07:25:00,45.0,41.7,29.88,ESE,113,0.0,0.0,88,0.00,,,0.00,14,Wunderground v.1.15,2013-04-12 12:25:00,
2013-04-12 07:30:00,45.0,41.7,29.88,ESE,113,0.0,0.0,88,0.00,,,0.00,16,Wunderground v.1.15,2013-04-12 12:30:00,
2013-04-12 07:35:00,45.0,42.0,29.88,ESE,113,0.0,0.0,89,0.00,,,0.00,18,Wunderground v.1.15,2013-04-12 12:35:00,
2013-04-12 07:40:00,45.1,42.1,29.88,ESE,113,0.0,0.0,89,0.00,,,0.00,19,Wunderground v.1.15,2013-04-12 12:40:00,
2013-04-12 07:45:00,45.1,42.1,29.89,ESE,113,0.0,0.0,89,0.00,,,0.00,23,Wunderground v.1.15,2013-04-12 12:45:00,
2013-04-12 07:50:00,45.3,42.5,29.89,ESE,113,0.0,0.0,90,0.00,,,0.00,30,Wunderground v.1.15,2013-04-12 12:50:00,
2013-04-12 07:55:00,45.5,42.7,29.89,ESE,113,0.0,0.0,90,0.00,,,0.00,30,Wunderground v.1.15,2013-04-12 12:55:00,
2013-04-12 08:10:00,46.0,43.5,29.90,ESE,113,0.0,0.0,91,0.00,,,0.00,35,Wunderground v.1.15,2013-04-12 13:10:00,
2013-04-12 08:15:00,46.4,44.2,29.91,ESE,113,0.0,0.0,92,0.00,,,0.00,37,Wunderground v.1.15,2013-04-12 13:15:00,
2013-04-12 08:20:00,47.0,44.8,29.91,ESE,113,0.0,0.0,92,0.00,,,0.00,39,Wunderground v.1.15,2013-04-12 13:20:00,
2013-04-12 08:25:00,47.5,45.6,29.91,ESE,113,0.0,0.0,93,0.00,,,0.00,42,Wunderground v.1.15,2013-04-12 13:25:00,
2013-04-12 08:30:00,48.2,46.3,29.91,ESE,113,0.0,0.0,93,0.00,,,0.00,42,Wunderground v.1.15,2013-04-12 13:30:00,
2013-04-12 08:35:00,48.8,46.6,29.91,ESE,113,0.0,0.0,92,0.00,,,0.00,49,Wunderground v.1.15,2013-04-12 13:35:00,
2013-04-12 08:40:00,49.2,47.0,29.91,ESE,113,0.0,0.0,92,0.00,,,0.00,46,Wunderground v.1.15,2013-04-12 13:40:00,
2013-04-12 08:45:00,49.9,47.7,29.92,ESE,113,0.0,0.0,92,0.00,,,0.00,49,Wunderground v.1.15,2013-04-12 13:45:00,
2013-04-12 08:50:00,50.5,48.0,29.92,ESE,113,0.0,0.0,91,0.00,,,0.00,81,Wunderground v.1.15,2013-04-12 13:50:00,
2013-04-12 08:55:00,51.0,48.2,29.92,ESE,113,0.0,0.0,90,0.00,,,0.00,315,Wunderground v.1.15,2013-04-12 13:55:00,
2013-04-12 09:10:00,57.1,50.3,29.92,ESE,113,0.0,0.0,78,0.00,,,0.00,378,Wunderground v.1.15,2013-04-12 14:10:00,
2013-04-12 09:15:00,58.5,51.3,29.92,ESE,113,0.0,0.0,77,0.00,,,0.00,396,Wunderground v.1.15,2013-04-12 14:15:00,
2013-04-12 09:20:00,59.0,50.7,29.92,ESE,114,0.0,0.0,74,0.00,,,0.00,415,Wunderground v.1.15,2013-04-12 14:20:00,
2013-04-12 09:25:00,59.6,51.3,29.92,ESE,114,0.0,0.0,74,0.00,,,0.00,432,Wunderground v.1.15,2013-04-12 14:25:00,
2013-04-12 09:30:00,60.7,52.4,29.92,ESE,114,0.0,0.0,74,0.00,,,0.00,452,Wunderground v.1.15,2013-04-12 14:30:00,
2013-04-12 09:35:00,61.0,51.9,29.92,ESE,114,0.0,0.0,72,0.00,,,0.00,471,Wunderground v.1.15,2013-04-12 14:35:00,
2013-04-12 09:40:00,61.5,52.4,29.92,ESE,120,0.0,2.0,72,0.00,,,0.00,482,Wunderground v.1.15,2013-04-12 14:40:00,
2013-04-12 09:45:00,61.6,52.5,29.92,ESE,121,1.0,2.0,72,0.00,,,0.00,504,Wunderground v.1.15,2013-04-12 14:45:00,
2013-04-12 09:50:00,62.0,52.5,29.92,ESE,121,1.0,1.0,71,0.00,,,0.00,520,Wunderground v.1.15,2013-04-12 14:50:00,
2013-04-12 09:55:00,62.2,51.9,29.92,ESE,120,0.0,1.0,69,0.00,,,0.00,540,Wunderground v.1.15,2013-04-12 14:55:00,
2013-04-12 10:06:00,63.6,51.6,29.92,ESE,121,1.0,1.0,65,0.00,,,0.00,577,Wunderground v.1.15,2013-04-12 15:06:00,
2013-04-12 10:10:00,64.0,52.4,29.92,SE,126,1.0,2.0,66,0.00,,,0.00,592,Wunderground v.1.15,2013-04-12 15:10:00,
2013-04-12 10:20:00,64.9,51.6,29.92,SE,137,2.0,2.0,62,0.00,,,0.00,624,Wunderground v.1.15,2013-04-12 15:20:00,
2013-04-12 10:25:00,64.9,52.0,29.92,SE,145,1.0,2.0,63,0.00,,,0.00,636,Wunderground v.1.15,2013-04-12 15:25:00,
2013-04-12 10:35:00,65.7,51.0,29.92,SE,140,2.0,2.0,59,0.00,,,0.00,670,Wunderground v.1.15,2013-04-12 15:35:00,
2013-04-12 10:40:00,66.3,52.4,29.92,SE,140,1.0,1.0,61,0.00,,,0.00,680,Wunderground v.1.15,2013-04-12 15:40:00,
2013-04-12 10:45:00,66.8,52.9,29.92,SE,138,1.0,1.0,61,0.00,,,0.00,698,Wunderground v.1.15,2013-04-12 15:45:00,
2013-04-12 10:51:00,66.7,51.9,29.92,SE,134,1.0,2.0,59,0.00,,,0.00,714,Wunderground v.1.15,2013-04-12 15:51:00,
2013-04-12 10:55:00,67.1,51.4,29.92,SE,134,1.0,2.0,57,0.00,,,0.00,724,Wunderground v.1.15,2013-04-12 15:55:00,
2013-04-12 11:00:00,67.4,51.6,29.92,SE,133,1.0,1.0,57,0.00,,,0.00,737,Wunderground v.1.15,2013-04-12 16:00:00,
2013-04-12 11:10:00,67.6,51.8,29.92,SE,134,2.0,2.0,57,0.00,,,0.00,747,Wunderground v.1.15,2013-04-12 16:10:00,
2013-04-12 11:20:00,68.5,51.7,29.92,SE,128,1.0,1.0,55,0.00,,,0.00,786,Wunderground v.1.15,2013-04-12 16:20:00,
2013-04-12 11:25:00,68.9,53.0,29.92,SE,129,2.0,2.0,57,0.00,,,0.00,791,Wunderground v.1.15,2013-04-12 16:25:00,
2013-04-12 11:36:00,69.2,51.8,29.91,SE,128,1.0,1.0,54,0.00,,,0.00,817,Wunderground v.1.15,2013-04-12 16:36:00,
2013-04-12 11:40:00,69.5,54.5,29.91,SE,126,1.0,1.0,59,0.00,,,0.00,823,Wunderground v.1.15,2013-04-12 16:40:00,
2013-04-12 11:45:00,70.8,54.8,29.90,SE,126,0.0,4.0,57,0.00,,,0.00,837,Wunderground v.1.15,2013-04-12 16:45:00,
2013-04-12 11:50:00,71.0,53.5,29.90,ESE,121,1.0,2.0,54,0.00,,,0.00,851,Wunderground v.1.15,2013-04-12 16:50:00,
2013-04-12 11:55:00,71.1,53.6,29.90,ESE,120,2.0,2.0,54,0.00,,,0.00,856,Wunderground v.1.15,2013-04-12 16:55:00,
2013-04-12 12:00:00,71.2,55.2,29.90,ESE,121,1.0,1.0,57,0.00,,,0.00,861,Wunderground v.1.15,2013-04-12 17:00:00,
2013-04-12 12:10:00,72.1,54.5,29.90,East,101,1.0,3.0,54,0.00,,,0.00,877,Wunderground v.1.15,2013-04-12 17:10:00,
2013-04-12 12:15:00,71.4,53.4,29.90,SE,127,1.0,4.0,53,0.00,,,0.00,886,Wunderground v.1.15,2013-04-12 17:15:00,
2013-04-12 12:20:00,71.6,54.6,29.90,SE,130,2.0,2.0,55,0.00,,,0.00,886,Wunderground v.1.15,2013-04-12 17:20:00,
2013-04-12 12:25:00,72.1,53.5,29.90,SE,126,2.0,2.0,52,0.00,,,0.00,895,Wunderground v.1.15,2013-04-12 17:25:00,
2013-04-12 12:30:00,72.8,53.6,29.89,ENE,69,1.0,5.0,51,0.00,,,0.00,904,Wunderground v.1.15,2013-04-12 17:30:00,
2013-04-12 12:35:00,73.0,53.8,29.89,East,82,1.0,5.0,51,0.00,,,0.00,911,Wunderground v.1.15,2013-04-12 17:35:00,
2013-04-12 12:45:00,73.3,52.4,29.89,SE,138,2.0,6.0,48,0.00,,,0.00,912,Wunderground v.1.15,2013-04-12 17:45:00,
2013-04-12 12:50:00,73.3,52.4,29.89,SE,129,2.0,2.0,48,0.00,,,0.00,918,Wunderground v.1.15,2013-04-12 17:50:00,
2013-04-12 12:55:00,73.9,54.1,29.89,East,101,2.0,2.0,50,0.00,,,0.00,923,Wunderground v.1.15,2013-04-12 17:55:00,
2013-04-12 13:00:00,74.8,54.4,29.88,ESE,103,1.0,1.0,49,0.00,,,0.00,926,Wunderground v.1.15,2013-04-12 18:00:00,
2013-04-12 13:05:00,75.5,53.9,29.88,ESE,117,2.0,4.0,47,0.00,,,0.00,928,Wunderground v.1.15,2013-04-12 18:05:00,
2013-04-12 13:15:00,75.1,54.1,29.87,ESE,109,1.0,2.0,48,0.00,,,0.00,932,Wunderground v.1.15,2013-04-12 18:15:00,
2013-04-12 13:20:00,75.4,53.2,29.87,ESE,107,2.0,3.0,46,0.00,,,0.00,933,Wunderground v.1.15,2013-04-12 18:20:00,
2013-04-12 14:30:00,78.0,49.6,29.84,SE,138,3.0,5.0,37,0.00,,,0.00,898,Wunderground v.1.15,2013-04-12 19:30:00,
2013-04-12 14:35:00,77.6,50.0,29.84,SSE,149,4.0,5.0,38,0.00,,,0.00,893,Wunderground v.1.15,2013-04-12 19:35:00,
2013-04-12 14:40:00,78.7,53.7,29.84,East,86,3.0,3.0,42,0.00,,,0.00,889,Wunderground v.1.15,2013-04-12 19:40:00,
2013-04-12 14:45:00,78.7,52.3,29.83,East,92,2.0,3.0,40,0.00,,,0.00,881,Wunderground v.1.15,2013-04-12 19:45:00,
2013-04-12 14:50:00,78.8,53.1,29.83,ESE,116,1.0,3.0,41,0.00,,,0.00,874,Wunderground v.1.15,2013-04-12 19:50:00,
2013-04-12 14:55:00,78.8,52.4,29.83,SSE,164,2.0,3.0,40,0.00,,,0.00,867,Wunderground v.1.15,2013-04-12 19:55:00,
2013-04-12 15:00:00,78.8,50.3,29.82,ENE,69,2.0,2.0,37,0.00,,,0.00,856,Wunderground v.1.15,2013-04-12 20:00:00,
2013-04-12 15:10:00,79.1,51.3,29.82,ESE,113,2.0,2.0,38,0.00,,,0.00,840,Wunderground v.1.15,2013-04-12 20:10:00,
2013-04-12 15:21:00,79.8,51.2,29.81,SE,134,3.0,3.0,37,0.00,,,0.00,821,Wunderground v.1.15,2013-04-12 20:21:00,
2013-04-12 15:25:00,80.1,52.2,29.81,East,87,2.0,3.0,38,0.00,,,0.00,814,Wunderground v.1.15,2013-04-12 20:25:00,
2013-04-12 15:30:00,80.5,48.7,29.80,SE,142,3.0,3.0,33,0.00,,,0.00,803,Wunderground v.1.15,2013-04-12 20:30:00,
2013-04-12 15:35:00,80.7,50.5,29.80,SSE,150,2.0,3.0,35,0.00,,,0.00,791,Wunderground v.1.15,2013-04-12 20:35:00,
2013-04-12 15:40:00,80.3,47.7,29.80,SE,145,1.0,3.0,32,0.00,,,0.00,779,Wunderground v.1.15,2013-04-12 20:40:00,
2013-04-12 15:45:00,80.0,48.3,29.80,ESE,115,4.0,4.0,33,0.00,,,0.00,768,Wunderground v.1.15,2013-04-12 20:45:00,
2013-04-12 15:50:00,80.2,50.8,29.80,SSE,151,4.0,4.0,36,0.00,,,0.00,754,Wunderground v.1.15,2013-04-12 20:50:00,
2013-04-12 15:55:00,80.4,49.5,29.80,ESE,115,2.0,6.0,34,0.00,,,0.00,742,Wunderground v.1.15,2013-04-12 20:55:00,
2013-04-12 16:00:00,80.4,49.5,29.79,SE,130,3.0,3.0,34,0.00,,,0.00,728,Wunderground v.1.15,2013-04-12 21:00:00,
2013-04-12 16:06:00,80.0,49.1,29.79,SE,143,5.0,5.0,34,0.00,,,0.00,712,Wunderground v.1.15,2013-04-12 21:06:00,
2013-04-12 16:15:00,80.5,50.3,29.78,ENE,57,2.0,4.0,35,0.00,,,0.00,687,Wunderground v.1.15,2013-04-12 21:15:00,
2013-04-12 16:20:00,80.7,50.5,29.78,East,99,2.0,4.0,35,0.00,,,0.00,673,Wunderground v.1.15,2013-04-12 21:20:00,
2013-04-12 16:25:00,81.1,48.4,29.78,SE,126,3.0,4.0,32,0.00,,,0.00,661,Wunderground v.1.15,2013-04-12 21:25:00,
2013-04-12 16:35:00,80.8,49.8,29.77,East,88,3.0,4.0,34,0.00,,,0.00,629,Wunderground v.1.15,2013-04-12 21:35:00,
2013-04-12 16:40:00,80.6,48.0,29.77,SE,138,3.0,3.0,32,0.00,,,0.00,613,Wunderground v.1.15,2013-04-12 21:40:00,
2013-04-12 16:45:00,80.4,47.0,29.77,ESE,119,4.0,9.0,31,0.00,,,0.00,598,Wunderground v.1.15,2013-04-12 21:45:00,
2013-04-12 16:50:00,80.5,47.9,29.77,South,179,4.0,10.0,32,0.00,,,0.00,557,Wunderground v.1.15,2013-04-12 21:50:00,
2013-04-12 16:55:00,80.5,47.9,29.77,SE,126,4.0,10.0,32,0.00,,,0.00,564,Wunderground v.1.15,2013-04-12 21:55:00,
2013-04-12 17:00:00,80.3,46.9,29.76,SE,145,5.0,5.0,31,0.00,,,0.00,552,Wunderground v.1.15,2013-04-12 22:00:00,
2013-04-12 17:06:00,80.2,46.8,29.76,ESE,121,3.0,5.0,31,0.00,,,0.00,533,Wunderground v.1.15,2013-04-12 22:06:00,
2013-04-12 17:15:00,80.2,48.5,29.76,SSE,155,4.0,4.0,33,0.00,,,0.00,499,Wunderground v.1.15,2013-04-12 22:15:00,
2013-04-12 17:20:00,80.7,49.7,29.76,ESE,103,3.0,3.0,34,0.00,,,0.00,482,Wunderground v.1.15,2013-04-12 22:20:00,
2013-04-12 17:25:00,80.8,48.2,29.76,East,101,2.0,3.0,32,0.00,,,0.00,466,Wunderground v.1.15,2013-04-12 22:25:00,
2013-04-12 17:30:00,80.6,48.8,29.76,ESE,113,1.0,2.0,33,0.00,,,0.00,448,Wunderground v.1.15,2013-04-12 22:30:00,
2013-04-12 17:35:00,80.7,47.2,29.76,SE,132,3.0,9.0,31,0.00,,,0.00,429,Wunderground v.1.15,2013-04-12 22:35:00,
2013-04-12 17:40:00,80.5,46.2,29.76,SE,141,5.0,5.0,30,0.00,,,0.00,417,Wunderground v.1.15,2013-04-12 22:40:00,
2013-04-12 17:45:00,80.4,48.7,29.76,East,92,3.0,5.0,33,0.00,,,0.00,397,Wunderground v.1.15,2013-04-12 22:45:00,
2013-04-12 17:50:00,80.4,46.1,29.76,SE,140,3.0,7.0,30,0.00,,,0.00,378,Wunderground v.1.15,2013-04-12 22:50:00,
2013-04-12 17:55:00,80.4,46.1,29.76,ESE,123,5.0,7.0,30,0.00,,,0.00,362,Wunderground v.1.15,2013-04-12 22:55:00,
2013-04-12 18:00:00,80.3,46.9,29.76,SE,134,4.0,6.0,31,0.00,,,0.00,345,Wunderground v.1.15,2013-04-12 23:00:00,
2013-04-12 18:05:00,80.1,47.6,29.76,ESE,102,2.0,6.0,32,0.00,,,0.00,327,Wunderground v.1.15,2013-04-12 23:05:00,
2013-04-12 18:10:00,80.2,46.8,29.76,ESE,103,2.0,2.0,31,0.00,,,0.00,315,Wunderground v.1.15,2013-04-12 23:10:00,
2013-04-12 18:20:00,80.5,47.1,29.75,ESE,117,3.0,8.0,31,0.00,,,0.00,278,Wunderground v.1.15,2013-04-12 23:20:00,
2013-04-12 18:25:00,80.0,46.6,29.75,ESE,113,4.0,8.0,31,0.00,,,0.00,262,Wunderground v.1.15,2013-04-12 23:25:00,
2013-04-12 18:30:00,80.0,45.8,29.75,SE,129,3.0,7.0,30,0.00,,,0.00,244,Wunderground v.1.15,2013-04-12 23:30:00,
2013-04-12 18:35:00,79.8,45.6,29.75,ESE,114,4.0,8.0,30,0.00,,,0.00,227,Wunderground v.1.15,2013-04-12 23:35:00,
2013-04-12 18:40:00,79.6,47.1,29.75,ESE,108,4.0,4.0,32,0.00,,,0.00,213,Wunderground v.1.15,2013-04-12 23:40:00,
2013-04-12 18:45:00,79.6,44.5,29.75,ESE,123,5.0,5.0,29,0.00,,,0.00,178,Wunderground v.1.15,2013-04-12 23:45:00,
2013-04-12 18:50:00,79.3,45.2,29.75,ESE,118,5.0,5.0,30,0.00,,,0.00,137,Wunderground v.1.15,2013-04-12 23:50:00,
2013-04-12 18:55:00,79.1,45.9,29.75,SE,124,3.0,5.0,31,0.00,,,0.00,127,Wunderground v.1.15,2013-04-12 23:55:00,
2013-04-12 19:10:00,78.8,45.6,29.75,ESE,113,5.0,5.0,31,0.00,,,0.00,127,Wunderground v.1.15,2013-04-13 00:10:00,
2013-04-12 19:15:00,78.4,45.3,29.75,ESE,110,3.0,5.0,31,0.00,,,0.00,107,Wunderground v.1.15,2013-04-13 00:15:00,
2013-04-12 19:20:00,78.1,45.8,29.75,East,94,2.0,4.0,32,0.00,,,0.00,93,Wunderground v.1.15,2013-04-13 00:20:00,
2013-04-12 19:25:00,78.0,45.7,29.75,ESE,113,2.0,4.0,32,0.00,,,0.00,79,Wunderground v.1.15,2013-04-13 00:25:00,
2013-04-12 19:35:00,78.0,44.9,29.75,ESE,119,2.0,3.0,31,0.00,,,0.00,39,Wunderground v.1.15,2013-04-13 00:35:00,
2013-04-12 19:40:00,77.9,45.7,29.75,ESE,111,2.0,4.0,32,0.00,,,0.00,30,Wunderground v.1.15,2013-04-13 00:40:00,
2013-04-12 19:50:00,77.4,45.2,29.75,ESE,103,3.0,3.0,32,0.00,,,0.00,11,Wunderground v.1.15,2013-04-13 00:50:00,
2013-04-12 19:55:00,77.0,45.7,29.75,ESE,109,3.0,3.0,33,0.00,,,0.00,7,Wunderground v.1.15,2013-04-13 00:55:00,
2013-04-12 20:00:00,76.6,45.3,29.75,ESE,108,2.0,3.0,33,0.00,,,0.00,0,Wunderground v.1.15,2013-04-13 01:00:00,
2013-04-12 20:06:00,76.2,45.8,29.75,ESE,105,2.0,3.0,34,0.00,,,0.00,0,Wunderground v.1.15,2013-04-13 01:06:00,
2013-04-12 20:10:00,75.9,46.3,29.75,ESE,105,2.0,2.0,35,0.00,,,0.00,0,Wunderground v.1.15,2013-04-13 01:10:00,
2013-04-12 20:15:00,75.5,45.9,29.75,ESE,104,2.0,2.0,35,0.00,,,0.00,0,Wunderground v.1.15,2013-04-13 01:15:00,
2013-04-12 20:20:00,75.0,45.5,29.75,ESE,104,1.0,2.0,35,0.00,,,0.00,0,Wunderground v.1.15,2013-04-13 01:20:00,
2013-04-12 20:30:00,74.4,45.7,29.76,East,101,2.0,2.0,36,0.00,,,0.00,0,Wunderground v.1.15,2013-04-13 01:30:00,
2013-04-12 20:35:00,73.9,46.0,29.76,East,101,2.0,2.0,37,0.00,,,0.00,0,Wunderground v.1.15,2013-04-13 01:35:00,
2013-04-12 20:40:00,73.6,46.4,29.76,ESE,103,2.0,4.0,38,0.00,,,0.00,0,Wunderground v.1.15,2013-04-13 01:40:00,
2013-04-12 20:45:00,73.1,46.0,29.77,ESE,113,2.0,4.0,38,0.00,,,0.00,0,Wunderground v.1.15,2013-04-13 01:45:00,
2013-04-12 20:50:00,72.8,46.4,29.77,SE,125,3.0,5.0,39,0.00,,,0.00,0,Wunderground v.1.15,2013-04-13 01:50:00,
2013-04-12 20:55:00,72.6,46.2,29.77,ESE,107,5.0,5.0,39,0.00,,,0.00,0,Wunderground v.1.15,2013-04-13 01:55:00,
2013-04-12 21:00:00,72.6,46.9,29.78,SE,125,6.0,6.0,40,0.00,,,0.00,0,Wunderground v.1.15,2013-04-13 02:00:00,
2013-04-12 21:05:00,72.4,46.7,29.78,ESE,119,4.0,6.0,40,0.00,,,0.00,0,Wunderground v.1.15,2013-04-13 02:05:00,
2013-04-12 21:10:00,72.2,47.2,29.78,ESE,112,3.0,5.0,41,0.00,,,0.00,0,Wunderground v.1.15,2013-04-13 02:10:00,
2013-04-12 21:15:00,72.0,47.0,29.78,SE,128,3.0,8.0,41,0.00,,,0.00,0,Wunderground v.1.15,2013-04-13 02:15:00,
2013-04-12 21:20:00,71.5,47.2,29.78,ESE,107,3.0,3.0,42,0.00,,,0.00,0,Wunderground v.1.15,2013-04-13 02:20:00,
2013-04-12 21:25:00,71.3,48.3,29.78,SE,136,4.0,7.0,44,0.00,,,0.00,0,Wunderground v.1.15,2013-04-13 02:25:00,
2013-04-12 21:30:00,71.2,48.8,29.79,SE,138,7.0,8.0,45,0.00,,,0.00,0,Wunderground v.1.15,2013-04-13 02:30:00,
2013-04-12 21:35:00,71.2,49.4,29.79,ESE,110,7.0,8.0,46,0.00,,,0.00,0,Wunderground v.1.15,2013-04-13 02:35:00,
2013-04-12 21:40:00,71.1,49.3,29.79,ESE,123,7.0,11.0,46,0.00,,,0.00,0,Wunderground v.1.15,2013-04-13 02:40:00,
2013-04-12 21:45:00,70.9,49.1,29.80,SE,129,7.0,13.0,46,0.00,,,0.00,0,Wunderground v.1.15,2013-04-13 02:45:00,
2013-04-12 21:50:00,70.8,49.0,29.80,SSE,155,8.0,11.0,46,0.00,,,0.00,0,Wunderground v.1.15,2013-04-13 02:50:00,
2013-04-12 21:55:00,70.6,48.8,29.80,SE,134,8.0,11.0,46,0.00,,,0.00,0,Wunderground v.1.15,2013-04-13 02:55:00,
2013-04-12 22:00:00,70.4,48.6,29.81,SE,125,6.0,6.0,46,0.00,,,0.00,0,Wunderground v.1.15,2013-04-13 03:00:00,
2013-04-12 22:06:00,70.1,48.4,29.81,SE,144,6.0,10.0,46,0.00,,,0.00,0,Wunderground v.1.15,2013-04-13 03:06:00,
2013-04-12 22:10:00,69.8,48.1,29.81,SE,137,6.0,6.0,46,0.00,,,0.00,0,Wunderground v.1.15,2013-04-13 03:10:00,
2013-04-12 22:15:00,69.6,47.9,29.82,SE,128,6.0,6.0,46,0.00,,,0.00,0,Wunderground v.1.15,2013-04-13 03:15:00,
2013-04-12 22:20:00,69.2,46.9,29.82,SE,133,6.0,7.0,45,0.00,,,0.00,0,Wunderground v.1.15,2013-04-13 03:20:00,
2013-04-12 22:30:00,68.8,46.6,29.83,SE,125,5.0,6.0,45,0.00,,,0.00,0,Wunderground v.1.15,2013-04-13 03:30:00,
2013-04-12 22:35:00,68.4,46.8,29.83,SE,134,5.0,6.0,46,0.00,,,0.00,0,Wunderground v.1.15,2013-04-13 03:35:00,
2013-04-12 22:40:00,68.1,45.9,29.83,SE,130,5.0,5.0,45,0.00,,,0.00,0,Wunderground v.1.15,2013-04-13 03:40:00,
2013-04-12 22:45:00,67.9,44.6,29.84,ESE,123,5.0,8.0,43,0.00,,,0.00,0,Wunderground v.1.15,2013-04-13 03:45:00,
2013-04-12 22:50:00,67.6,44.3,29.84,ESE,122,4.0,6.0,43,0.00,,,0.00,0,Wunderground v.1.15,2013-04-13 03:50:00,
2013-04-12 22:55:00,67.3,43.4,29.84,SE,125,4.0,6.0,42,0.00,,,0.00,0,Wunderground v.1.15,2013-04-13 03:55:00,
2013-04-12 23:00:00,67.0,43.1,29.85,ESE,115,4.0,4.0,42,0.00,,,0.00,0,Wunderground v.1.15,2013-04-13 04:00:00,
2013-04-12 23:10:00,66.4,42.6,29.85,SE,125,4.0,6.0,42,0.00,,,0.00,0,Wunderground v.1.15,2013-04-13 04:10:00,
2013-04-12 23:15:00,66.1,42.3,29.85,SE,126,4.0,6.0,42,0.00,,,0.00,0,Wunderground v.1.15,2013-04-13 04:15:00,
2013-04-12 23:20:00,65.9,42.8,29.85,SE,126,4.0,4.0,43,0.00,,,0.00,0,Wunderground v.1.15,2013-04-13 04:20:00,
2013-04-12 23:25:00,65.7,42.6,29.85,SE,128,4.0,4.0,43,0.00,,,0.00,0,Wunderground v.1.15,2013-04-13 04:25:00,
2013-04-12 23:30:00,65.3,42.2,29.86,ESE,117,4.0,4.0,43,0.00,,,0.00,0,Wunderground v.1.15,2013-04-13 04:30:00,
2013-04-12 23:35:00,65.0,43.1,29.86,SE,132,4.0,5.0,45,0.00,,,0.00,0,Wunderground v.1.15,2013-04-13 04:35:00,
2013-04-12 23:45:00,64.5,43.3,29.86,ESE,121,4.0,5.0,46,0.00,,,0.00,0,Wunderground v.1.15,2013-04-13 04:45:00,
2013-04-12 23:50:00,64.3,43.6,29.86,ESE,119,2.0,2.0,47,0.00,,,0.00,0,Wunderground v.1.15,2013-04-13 04:50:00,
2013-04-12 23:55:00,64.1,44.0,29.86,ESE,119,1.0,2.0,48,0.00,,,0.00,0,Wunderground v.1.15,2013-04-13 04:55:00,